Temp
25 24 24 23 23 22 22 21 21 20 20 20 20 20 20 20 19 19 19 19 18 18 18 17 17 17 17 17 17 17 18 18 18 19 20 20 21 21 21 24 21 24 19
25 24 23 23 22 22 21 21 21 21 20 20 20 20 20 19 19 19 19 18 18 17 17 16 16 16 16 16 17 17 17 17 17 18 19 19 19 20 21 22 24 21 20
24 24 23 23 22 21 21 21 20 20 20 20 20 20 19 19 19 19 18 17 17 16 15 15 15 15 15 15 15 16 15 15 15 17 18 19 19 19 20 20 21 20 21
24 24 23 22 22 21 21 21 20 20 20 20 20 19 19 19 19 18 17 17 16 14 14 14 14 14 14 14 14 14 14 14 15 16 18 18 19 19 20 21 19 20 21
23 23 23 22 22 21 21 20 20 20 20 19 19 19 19 19 19 17 16 15 14 13 13 13 13 13 13 13 13 13 13 13 15 16 17 18 18 19 19 19 19 20 20
23 22 22 22 22 21 21 20 20 20 20 19 19 19 19 18 18 16 15 14 14 12 13 13 12 12 12 12 12 13 13 13 14 16 17 17 18 19 20 20 22 19 18
22 22 22 22 21 21 21 20 20 20 19 19 19 19 19 18 17 15 15 14 12 13 13 13 13 13 12 12 12 13 13 13 13 14 16 17 18 19 20 21 22 22 21
23 23 22 22 21 21 21 20 20 19 19 19 19 19 18 18 17 15 15 15 13 13 13 13 12 13 13 12 12 13 13 14 15 15 15 16 18 20 21 22 23 23 22
23 23 22 22 21 21 21 20 20 19 19 19 19 19 18 17 16 16 15 14 13 13 13 13 12 12 13 13 13 13 14 16 17 17 17 16 18 19 20 21 20 20 19
23 23 22 22 22 21 20 20 20 19 19 19 19 19 18 18 17 16 14 14 12 13 14 13 13 12 14 16 14 15 16 16 17 18 17 17 19 19 20 21 22 20 19
22 23 22 22 21 21 20 20 20 19 19 19 19 19 18 17 17 16 15 15 12 13 13 13 13 13 12 14 15 16 16 16 18 19 18 17 18 20 21 21 21 20 19
23 23 22 21 21 20 20 20 20 20 19 20 19 18 18 17 17 16 15 15 14 13 13 13 13 13 12 13 13 15 16 16 16 16 16 16 17 18 20 20 20 19 18
22 22 21 21 20 20 20 20 20 20 20 20 18 18 17 17 16 16 15 15 15 15 13 13 14 14 13 13 13 13 13 13 14 14 14 14 15 16 18 18 17 17 17
19 18 19 18 19 19 19 20 20 20 20 19 18 16 17 17 16 15 15 15 15 15 14 13 14 14 14 13 13 13 13 12 12 12 13 13 13 14 14 15 15 15 15
17 16 17 18 19 20 18 18 19 19 20 19 17 17 16 16 15 14 14 14 14 14 15 14 12 13 13 14 13 12 12 12 12 13 13 13 13 13 13 13 14 13 13
16 17 17 19 16 15 16 16 17 18 18 18 17 17 16 15 15 15 14 14 14 14 13 12 12 12 13 13 13 13 13 12 13 13 13 13 14 14 14 14 14 13 12
18 18 18 15 16 15 17 15 14 15 16 17 16 16 16 15 15 15 15 14 13 13 13 12 12 12 12 12 13 13 13 14 14 14 14 13 13 14 14 14 14 14 13
18 16 15 16 18 18 17 15 14 15 15 15 16 16 15 15 15 14 14 14 13 13 13 12 12 11 11 11 11 11 11 11 11 12 13 14 14 14 13 13 14 14 14
16 16 17 17 17 18 18 17 16 15 15 15 16 16 15 15 14 14 14 14 13 13 13 12 12 11 10 10 10 10 10 9 10 10 10 12 13 14 14 15 15 15 15
17 18 17 17 16 16 17 16 16 15 15 15 15 17 17 15 14 14 14 14 14 13 13 12 11 10 10 9 9 9 8 8 8 9 10 10 11 12 12 13 14 14 13
16 16 17 16 15 15 16 16 15 15 16 16 17 17 17 16 15 15 14 14 14 13 13 11 11 10 9 9 8 7 7 7 7 7 8 9 10 10 12 12 12 12 12
15 14 15 16 16 15 14 14 15 15 16 16 17 17 16 16 15 14 14 14 14 13 12 10 9 9 8 8 7 7 6 6 6 6 7 8 9 10 10 10 10 10 11
16 16 15 15 16 15 15 15 16 16 16 16 17 16 15 15 14 14 14 13 13 12 11 10 9 8 7 7 6 6 6 6 6 6 7 8 8 9 9 9 9 9 10
16 16 15 15 15 15 16 16 16 17 17 17 17 16 15 14 13 13 13 13 12 11 11 10 9 8 7 6 6 5 6 6 6 6 6 7 8 7 8 7 7 8 8
15 15 15 14 14 14 15 16 17 17 17 17 16 15 14 13 12 12 12 12 12 11 10 8 8 7 6 6 6 6 5 5 6 6 6 6 7 6 7 6 6 6 6
15 15 16 16 16 16 16 17 17 16 16 15 15 14 13 12 12 11 11 11 11 10 9 8 7 7 6 6 6 5 5 5 5 5 5 5 6 5 5 5 6 6 5
Height
794 801 807 812 815 816 816 815 814 815 815 815 813 811 810 809 808 806 804 801 799 796 793 790 786 784 779 776 773 770 767 765 759 745 748 748 749 747 750 755 755 759 767
787 795 803 810 814 815 815 814 813 813 813 812 810 808 807 806 804 801 799 797 793 789 785 780 774 770 765 763 760 756 754 753 752 739 739 737 736 739 739 744 747 750 752
784 790 797 805 810 813 813 812 811 811 811 809 808 806 804 802 799 797 795 792 787 782 776 768 759 754 746 745 742 739 740 740 738 733 725 729 725 726 727 729 734 744 746
780 787 793 798 804 809 810 809 808 809 808 807 806 805 802 800 797 795 791 787 781 772 763 754 746 738 728 727 726 724 725 725 724 722 716 719 720 718 720 721 724 725 727
778 785 790 796 801 804 806 806 806 806 805 804 803 801 798 795 793 791 787 781 771 760 751 740 731 721 714 712 711 709 711 711 709 708 707 709 711 713 714 715 717 717 717
778 784 790 794 797 800 803 804 803 802 801 800 800 798 795 792 790 787 781 774 763 752 738 726 716 705 697 695 695 696 698 698 699 698 697 698 700 705 708 709 712 715 716
777 782 787 791 793 796 799 800 799 799 798 797 795 793 792 790 788 784 776 767 757 744 731 716 703 693 687 683 681 682 683 684 686 689 688 689 692 696 699 703 705 705 706
774 780 784 787 790 793 795 797 797 796 796 795 794 791 789 787 783 780 770 761 751 739 727 710 697 684 675 673 673 673 671 670 670 674 676 680 684 688 692 695 698 699 702
770 775 781 785 788 790 793 794 795 795 792 790 789 788 787 786 780 775 766 757 747 737 721 706 693 679 668 665 666 664 662 659 659 660 664 670 676 682 687 690 691 693 695
767 771 777 781 785 788 791 792 791 790 788 786 784 784 783 783 778 771 765 756 748 735 718 705 692 679 663 658 659 659 655 649 650 652 657 664 671 677 682 684 686 688 693
767 771 775 780 784 788 791 791 792 790 790 786 783 779 781 780 774 771 765 757 748 737 725 711 697 686 673 663 659 658 653 647 644 648 653 659 665 671 677 679 682 684 687
763 770 774 779 783 785 787 788 787 787 786 781 782 778 778 777 772 770 766 761 749 740 731 721 710 696 682 671 665 661 656 650 650 652 655 662 666 669 673 675 678 680 685
758 768 773 777 782 782 782 783 781 781 783 780 779 777 776 774 771 767 766 762 751 742 735 727 718 707 696 683 677 671 666 664 663 661 666 665 667 673 674 677 679 682 683
762 769 772 777 779 784 781 777 777 777 776 778 777 775 773 773 770 766 765 763 753 745 738 732 723 717 709 703 693 687 683 681 679 680 680 680 680 679 680 682 683 685 686
767 763 769 772 776 771 771 773 773 774 773 771 774 775 772 773 772 768 767 765 757 748 741 734 728 723 718 712 707 703 699 696 692 692 691 691 691 690 691 692 691 691 692
763 760 761 757 758 764 767 768 770 770 773 769 774 772 771 774 773 769 768 768 760 751 743 741 739 735 730 725 720 717 713 708 706 705 703 700 701 701 701 701 699 699 698
752 752 753 755 757 760 762 764 765 769 770 768 772 774 772 774 773 770 770 769 762 755 749 748 745 742 738 734 729 726 723 721 718 714 711 710 709 709 708 706 706 705 704
752 752 753 755 756 758 756 760 764 764 765 768 769 771 772 773 775 771 772 769 763 758 755 753 752 748 746 744 740 737 733 729 725 723 721 719 717 714 712 711 710 708 707
750 750 750 750 753 753 752 755 761 766 768 766 767 767 770 772 774 773 774 770 767 764 759 757 756 754 751 748 745 744 741 738 735 731 728 726 724 721 719 717 715 713 712
746 746 747 748 750 753 751 752 753 760 764 767 767 766 768 770 773 774 774 771 768 765 762 761 759 758 756 754 751 749 746 743 740 738 735 733 731 728 726 723 721 720 719
745 746 745 744 749 751 751 752 754 760 762 766 766 768 768 768 772 774 774 772 770 767 765 764 764 761 759 758 756 753 750 749 747 744 741 738 736 734 732 729 727 726 724
744 744 745 747 747 749 752 754 755 756 763 765 768 769 769 768 771 773 774 773 771 768 767 766 766 764 763 762 759 757 754 752 750 747 744 742 740 738 736 733 731 729 728
742 742 744 746 747 749 750 752 754 756 760 762 767 771 769 770 772 774 774 774 773 770 770 769 768 768 768 766 763 761 758 755 753 751 748 746 743 741 739 737 734 732 731
742 745 746 750 752 752 751 753 758 759 758 763 768 770 769 772 774 775 776 776 774 772 771 772 771 771 770 769 767 764 761 757 755 753 751 748 746 744 742 739 737 735 734
746 747 749 751 753 755 756 757 759 761 761 764 768 770 772 774 775 776 776 777 775 773 773 773 773 773 772 770 768 765 762 759 756 754 752 751 748 746 743 741 739 737 735
748 749 750 752 754 755 757 760 762 763 766 768 770 772 774 775 776 777 778 778 777 776 776 775 774 773 772 771 769 766 763 760 757 754 753 751 749 747 744 743 742 740 738
Wind_Speed
25 19 13 12 10 8 7 4 4 7 11 12 12 13 16 18 18 19 21 21 20 26 26 27 29 30 32 33 31 30 31 28 18 36 31 34 34 36 36 38 44 45 32
25 19 17 13 10 8 8 5 6 8 9 12 14 15 16 18 19 19 21 22 19 30 33 33 35 36 36 36 36 35 33 34 33 29 32 31 37 42 42 38 36 35 34
27 26 19 12 9 9 8 6 7 9 12 12 12 15 16 18 20 21 21 24 33 35 38 39 40 41 42 37 36 36 34 34 37 36 33 30 33 32 36 34 32 30 34
28 23 17 13 10 10 8 7 7 9 10 10 12 13 16 18 20 18 24 35 40 39 40 41 44 47 47 40 38 35 34 34 33 36 30 26 28 29 34 27 19 23 26
28 21 17 13 10 9 8 8 8 9 9 8 11 11 13 14 14 21 29 35 38 42 42 43 41 43 43 43 38 33 30 31 29 28 26 24 25 24 19 21 23 28 29
26 20 15 13 11 8 8 10 9 10 6 8 10 11 13 12 17 21 31 38 40 39 41 42 42 38 36 38 40 41 40 33 30 23 23 20 24 25 26 26 24 11 4
23 19 15 14 11 10 9 10 10 7 7 8 8 10 13 16 21 25 34 39 37 38 40 43 40 35 31 30 31 34 39 43 46 39 27 25 24 25 27 26 28 20 15
22 18 16 14 12 11 11 10 9 7 9 10 10 9 14 14 19 27 36 42 37 42 40 39 37 36 35 29 27 28 31 34 36 41 41 36 28 29 27 29 27 22 13
25 20 17 15 14 14 12 10 8 9 9 10 9 12 11 13 19 28 36 41 39 39 41 41 38 38 32 30 24 27 28 28 28 33 36 39 38 33 25 19 11 7 2
23 20 18 17 16 13 12 10 11 11 11 8 11 12 6 15 21 29 31 38 35 35 42 42 42 46 25 14 21 20 19 25 22 22 32 35 33 31 22 20 18 9 6
20 20 18 16 13 12 12 13 15 13 12 13 14 5 4 13 20 26 31 35 32 27 34 40 44 45 36 20 14 14 16 14 1 12 18 26 26 28 22 21 20 15 12
21 18 16 10 8 9 14 19 17 16 14 15 15 1 6 14 20 26 29 29 32 32 30 36 38 49 42 45 37 28 26 28 30 28 26 21 13 7 8 3 4 3 6
23 17 12 5 5 11 15 19 20 18 15 14 3 4 8 14 18 24 26 26 28 35 32 27 35 37 43 45 43 43 39 31 27 26 21 20 22 17 14 13 15 13 12
22 18 13 9 12 24 25 22 22 21 17 8 3 5 9 14 20 23 23 24 25 29 33 32 32 30 29 33 37 40 37 35 32 28 24 24 26 27 27 18 19 21 24
11 21 11 4 14 34 31 27 24 11 13 10 7 9 12 15 17 18 17 22 21 24 28 35 35 32 31 24 27 33 36 35 32 32 31 28 28 30 29 25 27 24 20
23 21 15 21 28 23 22 21 16 12 9 12 12 10 13 12 16 18 13 17 21 21 28 24 25 26 27 27 26 26 30 28 28 28 26 26 27 26 25 27 27 24 19
26 24 25 22 24 26 24 22 22 16 16 15 11 9 10 10 14 19 16 16 21 23 24 22 22 24 25 25 28 29 28 27 30 32 33 27 20 19 20 20 18 19 18
20 19 17 17 18 7 18 22 19 22 19 14 8 5 5 7 9 15 18 20 24 24 22 22 21 23 24 25 27 26 27 30 29 28 27 26 30 27 21 20 22 17 13
15 14 16 15 8 14 17 20 14 12 9 10 7 3 8 6 4 11 12 17 19 20 22 24 22 25 25 26 27 26 27 28 28 29 29 29 30 30 25 24 26 27 24
8 7 4 5 9 14 19 20 18 14 10 12 11 6 3 10 9 8 11 13 14 16 18 22 23 23 26 27 27 25 25 27 27 26 27 29 29 29 30 28 24 24 25
10 14 14 15 14 16 16 17 17 17 19 16 10 9 10 16 13 11 10 10 13 14 16 20 19 21 24 26 25 26 25 24 25 24 23 25 26 27 27 27 25 25 25
4 10 11 10 13 14 18 20 18 21 14 10 10 8 16 17 16 15 14 12 13 15 17 17 18 20 22 24 25 26 25 24 23 24 21 20 24 27 26 25 24 24 25
7 13 15 16 16 19 16 17 16 14 9 15 15 11 18 17 17 16 14 13 13 16 15 15 15 17 18 23 24 24 23 21 18 19 17 18 22 25 22 22 24 24 24
6 9 11 10 9 14 20 20 13 8 10 19 19 17 20 20 18 15 14 13 16 16 16 16 15 16 17 22 24 25 23 17 14 14 15 18 21 20 19 21 22 22 24
5 9 9 7 5 9 7 11 8 17 23 21 20 21 23 22 19 16 13 15 15 17 19 15 13 13 15 21 24 25 22 21 15 12 12 16 19 16 19 18 20 20 21
11 16 15 10 1 4 7 15 16 19 19 19 21 22 21 20 18 16 12 13 15 17 15 15 13 13 16 19 23 24 22 19 17 13 11 15 17 16 19 18 16 15 17
Wind_Direction
175 180 193 197 210 229 245 264 295 296 304 310 319 325 323 321 320 316 312 309 304 307 311 304 293 286 280 276 271 269 269 268 264 272 265 264 252 248 241 248 237 248 271
172 174 178 189 216 236 256 279 298 317 330 329 332 330 329 324 322 320 314 308 309 313 309 301 293 289 281 274 267 263 259 261 264 265 261 257 255 255 254 252 256 248 249
164 170 173 194 219 248 267 288 312 322 319 325 328 332 329 329 327 324 320 322 324 314 304 295 286 282 276 272 265 261 257 262 256 254 257 250 252 255 257 259 256 241 235
169 172 178 187 211 239 265 277 299 311 319 338 335 332 330 334 330 324 334 331 323 308 299 290 285 286 275 274 269 262 261 254 251 249 249 244 243 248 253 254 242 246 241
163 168 174 187 205 238 253 272 288 298 320 325 328 333 332 328 336 332 335 329 318 312 301 293 289 290 278 269 267 259 250 252 252 240 244 239 237 237 231 230 229 244 244
160 163 172 185 202 224 251 268 282 293 295 308 324 323 332 331 334 335 342 332 323 311 312 310 304 298 282 272 271 258 249 248 252 251 235 234 237 228 230 227 235 189 221
160 168 179 190 205 226 240 260 276 274 273 299 310 329 331 327 345 347 346 340 327 321 321 317 312 303 291 278 266 262 257 251 247 244 248 237 235 228 226 231 239 221 213
163 168 180 200 215 221 231 249 263 270 280 290 310 322 330 332 353 356 354 351 341 329 331 326 321 316 299 283 265 261 259 254 247 241 236 236 235 236 239 241 241 240 210
167 176 194 206 213 218 234 238 257 276 276 279 310 319 322 346 1 359 0 0 344 336 344 337 339 340 321 289 272 261 261 257 259 251 239 231 235 242 244 229 202 167 194
178 187 198 208 211 224 234 241 255 263 278 304 319 328 293 349 3 10 6 6 346 344 353 347 355 359 341 323 265 269 278 259 259 233 230 231 233 238 239 226 237 190 165
179 192 196 205 217 236 249 262 264 272 294 310 310 329 334 1 5 6 7 9 354 348 359 352 3 9 28 48 68 47 32 41 286 232 226 215 215 221 226 243 243 241 230
190 188 176 191 227 246 262 265 256 275 286 295 304 83 349 358 359 355 1 10 13 14 360 1 4 11 22 39 48 59 58 57 60 63 64 61 85 110 150 146 212 272 260
167 149 138 147 254 260 265 267 271 279 280 281 215 22 4 355 351 354 359 4 24 28 28 18 19 19 21 33 39 47 52 52 56 60 58 56 65 69 84 84 80 104 93
115 107 102 46 352 303 283 280 277 279 267 185 131 58 38 16 4 2 3 1 24 36 33 25 31 16 29 35 39 47 49 50 55 51 53 58 65 65 68 78 97 82 75
150 147 130 3 271 264 263 279 268 240 189 156 119 92 59 26 12 11 12 10 17 39 42 35 23 21 14 28 33 40 47 50 53 55 52 52 55 60 62 68 73 71 67
168 159 191 232 250 256 260 257 226 170 153 121 130 97 79 51 28 19 13 18 27 35 45 32 23 19 24 23 28 30 38 38 45 54 59 62 60 60 62 63 66 64 60
186 197 229 244 257 252 254 202 146 143 141 129 124 107 87 69 42 36 30 33 39 43 44 35 35 25 17 14 28 33 30 36 43 46 49 50 46 45 50 51 54 59 56
220 241 252 255 260 284 196 174 161 153 157 157 147 141 120 85 54 49 36 36 37 47 46 45 41 42 36 32 33 31 31 29 27 29 34 41 44 46 39 36 37 29 26
228 234 253 245 151 112 109 146 142 165 157 155 167 229 243 210 114 55 56 48 42 41 48 47 47 49 45 41 38 34 32 30 32 31 27 28 34 34 30 31 36 41 49
165 157 130 164 123 101 115 131 132 157 175 204 190 183 166 229 232 106 70 60 47 44 54 47 60 51 45 41 37 34 32 30 28 30 33 30 28 31 25 24 36 45 42
141 147 130 117 111 121 140 149 153 158 152 168 155 157 128 118 120 102 79 70 56 59 65 68 67 50 42 38 37 35 34 30 25 25 27 31 29 22 26 30 42 41 36
204 139 161 138 133 135 150 157 159 153 179 180 156 139 131 109 100 91 74 64 59 74 72 79 65 52 45 41 35 32 27 22 18 16 17 26 25 22 23 30 30 27 24
95 95 122 140 147 147 141 157 158 159 189 215 173 134 125 112 101 89 73 53 66 87 81 73 71 60 52 40 34 25 19 16 14 9 13 20 16 13 16 25 22 17 11
117 138 134 140 155 167 160 150 146 186 136 139 133 116 115 108 101 92 74 66 69 84 74 62 70 62 50 34 26 22 20 18 15 17 22 17 14 23 22 19 16 14 14
129 126 132 132 181 207 165 135 51 110 107 105 110 107 108 101 92 88 76 66 68 80 71 70 68 54 37 25 19 17 19 21 18 22 28 28 22 22 17 18 15 16 19
116 116 118 123 165 262 116 110 112 106 101 102 106 102 105 99 90 80 80 63 71 78 72 68 72 39 23 17 10 10 9 10 18 24 32 29 19 18 12 11 10 13 17